Airfield :
LOGIN :

Register | Disclaimer

   EN    FR    IT 

 










Legend :    VFR   Marginal VFR   IFR   Intensive IFR   Very Intensive IFR
Visi :
Ceiling :
>= 8 km
>= 3000ft
5 to 8 km
1000 to 3000 ft
1500m to 5 km
500 to 1000 ft
800 to 1500m
200 to 500 ft
< 800m
< 200 ft
Symbols :   Thunderstorms  Fog  Heavy snow  Heavy precipitations  Wind > 20 kt
SIGMETs :     Misc.  Thunderstorms  Icing  Turbulence  Mountain Waves  Volcanic Ashes






- Airport Elevation : 156 ft
- IATA code : OMO


LQMO - Mostar

CURRENT METAR :
  • 172200Z 14005KT 100V170 9999 FEW050 SCT094 02/M02 Q1023

EXPIRED METARs :
  • 172100Z VRB02KT CAVOK 03/M01 Q1023
  • 172000Z 05003KT CAVOK 04/M01 Q1022

TAF TAF LQMO
Valid from the 17 at 18:00 until the 18 at 18:00 UTC


171700Z 1718/1818 30005KT CAVOK TX13/1813Z TN02/1806Z
TEMPO 1720/1818 36012KT
PROB40
TEMPO 1809/1816 02020G35KT
PROB40
TEMPO 1816/1818 02015G25KT



MET'MAP, your aeronautical weather chart ! - Copyright ORBIFLY December 2007 - Disclaimer

ORBIFLY MET'MAP TEAM :

Programming & Development : Alexandra Zaïnal
Concept & original design : Baudouin d'Aumeries
Assistance for programming : Marc-Olivier Méhu
Technical & hardware support : Manuel Goepfert

Contact : metmap@orbifly.com




SOURCES & CREDITS :

   NOAA